Location: Katwijk
(52.2000°N, 4.4170°E)
Time: 13:52:25
(UTC+02:00)

ISS - Visible Passes

Search period start: 23 May 2015 00:00
Search period end: 02 June 2015 00:00
Orbit: 399 x 404 km, 51.6° (Epoch: 23 May)

Date Brightness Start Highest point End Pass type
(mag) Time Alt. Az. Time Alt. Az. Time Alt. Az.
23 May -1.3 02:37:53 17° SE 02:37:53 17° SE 02:39:28 10° E visible
23 May -3.2 04:10:28 14° WSW 04:13:08 56° SSE 04:16:22 10° E visible
24 May -2.8 03:18:56 30° SSW 03:20:01 41° SSE 03:23:07 10° E visible
25 May -2.2 02:27:20 28° SE 02:27:20 28° SE 02:29:48 10° E visible
25 May -3.4 03:59:53 11° WSW 04:03:03 74° S 04:06:20 10° E visible
26 May -1.0 01:35:39 13° ESE 01:35:39 13° ESE 01:36:17 10° E visible
26 May -3.3 03:08:12 26° WSW 03:09:51 60° SSE 03:13:04 10° E visible
26 May -3.4 04:42:55 10° W 04:46:11 82° S 04:49:28 10° E visible
27 May -3.1 02:16:25 44° S 02:16:37 44° SSE 02:19:46 10° E visible
27 May -3.4 03:49:39 10° W 03:52:55 83° S 03:56:11 10° E visible
28 May -2.0 01:24:30 25° ESE 01:24:30 25° ESE 01:26:23 10° E visible
28 May -3.5 02:57:02 15° WSW 02:59:36 77° S 03:02:53 10° E visible
28 May -3.4 04:32:44 10° W 04:35:59 70° SSW 04:39:14 10° ESE visible
29 May -1.0 00:32:23 13° E 00:32:23 13° E 00:32:51 10° E visible
29 May -3.4 02:04:53 29° WSW 02:06:18 64° SSE 02:09:33 10° E visible
29 May -3.4 03:39:24 10° W 03:42:40 80° S 03:45:56 10° E visible
30 May -3.2 01:12:16 39° SSW 01:13:01 48° SSE 01:16:11 10° E visible
30 May -3.5 02:46:03 10° W 02:49:18 83° S 02:52:35 10° E visible
30 May -3.2 04:22:27 10° W 04:25:38 51° SSW 04:28:48 10° ESE visible
31 May -2.7 00:17:08 12° SW 00:19:44 34° SSE 00:22:45 10° E visible
31 May -3.5 01:52:41 10° W 01:55:56 79° S 01:59:12 10° E visible
31 May -3.4 03:29:03 10° W 03:32:17 66° SSW 03:35:32 10° ESE visible
31 May -2.2 23:23:50 10° SSW 23:26:29 23° SSE 23:29:10 10° E visible
01 Jun -3.5 00:59:19 10° WSW 01:02:33 67° SSE 01:05:48 10° E visible
01 Jun -3.5 02:35:39 10° W 02:38:54 78° S 02:42:11 10° E visible
01 Jun -2.7 04:12:07 10° W 04:15:06 33° SSW 04:18:05 10° SE visible
